Location: D�rnast
(49.6426°N, 11.9755°E)
Time: 05:15:49
(UTC+00:00)

ISS - Pass Details

Date: 05 December 2021
Orbit: 413 x 423 km, 51.6° (Epoch: 18 January)

Event Time Altitude Azimuth Distance (km) Brightness Sun altitude
Rises 16:03:44 0° 287° (WNW) 2,386 0.9 -7.9°
Reaches altitude 10° 16:05:50 10° 287° (WNW) 1,517 -0.2 -8.3°
Maximum altitude 16:09:15 84° 199° (SSW) 431 -3.7 -8.8°
Drops below altitude 10° 16:12:38 10° 112° (ESE) 1,506 -1.3 -9.3°
Enters shadow 16:13:31 - 112° (ESE) 1,864 -0.9 -9.4°
